Вернуться в каталог

FENGYUN 1C DEB

АктивенPO
NORAD 31817·DEBRIS·🇨🇳 China

Запущен May 10, 1999 с Taiyuan Satellite Launch Center

Loading…

Ближайшие Пролёты (ближайшие 24 часа)

TLE

УстаревающийSource: Space-Track

Эпоха: Sep 10, 2026, 07:41 UTC

1 31817U 99025CHF 26253.32039565  .00003469  00000-0  58688-3 0  9996
2 31817  98.9158 278.7102 0056825 316.6202  43.0535 14.69050009753891

Отслеживайте FENGYUN 1C DEB в реальном времени с AllMySat

Download on the App Store